2023-057A (56308 NORAD) Tracking and Keplerian Element Data

This shows tracking and keplerian element data for the satellite.

Feedback or suggestion? Click here.




ElementValue
Catalog56308
Name2023-057A
Epoch Orbit211
Epoch Day126.48976803
Epoch Year2023
RAAN207.9049
Inclination9.8866
Eccentricity0.0023408
Argument of Perigee44.0284
Mean Anonmoly316.1949
Mean Motion14.88288949
Decay Rate2.509E-05
L11 56308U 23057A 23126.48976803 .00002509 00000+0 19385-3 0 9992
L22 56308 9.8866 207.9049 0023408 44.0284 316.1949 14.88288949 2119



Live tracking and technical data element details for 2023-057A (NORAD 56308). 2023-057A can be tracked NOW for your location showing map with azimuth and elevation plus other details from your city location.







IsCatalogInMostPopularTable: catalog: 56308, numindb: 11
Update: records affected: 1



GetName: 56308 2023-057A

Hit Count: updated at: Wed, 07 Jun 2023 09:38:58 GMT